Location: OHP
(43.9325°N, 5.7154°E)
Time: 12:49:07
(UTC+01:00)

ISS - Visible Passes

Search period start: 25 April 2019 00:00
Search period end: 05 May 2019 00:00
Orbit: 408 x 410 km, 51.6° (Epoch: 25 April)

Date Brightness Start Highest point End Pass type
(mag) Time Alt. Az. Time Alt. Az. Time Alt. Az.
28 Apr -1.0 04:26:17 10° SSE 04:27:14 11° SE 04:28:11 10° ESE visible
30 Apr -2.1 04:19:25 13° S 04:21:45 26° SE 04:24:33 10° E visible
01 May -1.5 03:30:35 15° SE 03:31:04 15° SE 03:33:02 10° E visible
02 May -3.6 04:14:25 21° SW 04:16:23 62° SE 04:19:40 10° ENE visible
03 May -2.8 03:25:26 34° SE 03:25:34 34° SE 03:28:36 10° ENE visible
04 May -1.2 02:36:23 15° E 02:36:23 15° E 02:37:18 10° E visible
04 May -3.5 04:09:07 21° WSW 04:11:07 60° NNW 04:14:24 10° NE visible
